ImprimablePdf
Antwerp, 25/04/2010, BEL - DVV Antwerp Marathon & 10 Miles
Liste des rapports > Marathon - Classement + Video
Recherche: Page: [1] 2
221 Entrées
 
Les réclamations ne sont plus acceptées, les résultats sont considérés comme définitifs.
RangNrNomAgeIOCTempsTkmMoy.ScrLocalité
1.289DEWAELE JOOST36BEL2:36:053:42 16.229VICHTETéléchargez votre diplome!
2.669VAN HOECK YVES39BEL2:38:073:45 16.0110MOERBEKE-WAASTéléchargez votre diplome!
3.370LELIAERT ANDY35BEL2:41:483:51 15.6515NEEROETERENTéléchargez votre diplome!
4.876PARDAENS KAREL39BEL2:45:203:56 15.3117HEVERLEETéléchargez votre diplome!
5.12RUL KRISTOF38BEL2:48:414:00 15.0124DEINZETéléchargez votre diplome!
6.772VERMOENS PHILIP39BEL2:49:274:01 14.9426ESSENTéléchargez votre diplome!
7.845NELISSEN JOHNY38BEL2:57:034:12 14.3048BREETéléchargez votre diplome!
8.1803FESTJENS Peter38BEL2:57:354:13 14.2653Téléchargez votre diplome!
9.1277VAN RYSSELBERGHE JOHAN38BEL2:57:404:13 14.2558LAARNETéléchargez votre diplome!
10.405THEUNISSEN IWAN38NLD2:57:404:13 14.2559LANDGRAAFTéléchargez votre diplome!
11.785VAN CASTER ERIC38GBR2:58:074:14 14.2164CHELMSFORDTéléchargez votre diplome!
12.1366TERMONIA PIET39BEL2:59:324:16 14.1071GERAARDSBERGENTéléchargez votre diplome!
13.1042DAEMS JAN35BEL2:59:394:16 14.0973LEUVENTéléchargez votre diplome!
14.594LEROY CHRISTOPHE39BEL2:59:424:16 14.0974HALLETéléchargez votre diplome!
15.322VANDEBEEK PATRICK36BEL3:02:284:20 13.8883AARSCHOTTéléchargez votre diplome!
16.1419AERNOUTS PAUL37BEL3:03:454:22 13.7890WUUSTWEZELTéléchargez votre diplome!
17.559DE PAUW KURT39BEL3:06:144:25 13.60106WILLEBROEKTéléchargez votre diplome!
18.1398LINDEKENS ANDRE39BEL3:06:384:26 13.57107FOSSES-LA-VILLETéléchargez votre diplome!
19.1156HERREBOUT STEFAAN39BEL3:06:464:26 13.56109SINT-MICHIELSTéléchargez votre diplome!
20.1421JACOBS ROEL36BEL3:09:514:30 13.34128ARENDONKTéléchargez votre diplome!
21.1251SONDERGAARD PETER38BEL3:10:204:31 13.30131SCHAARBEEKTéléchargez votre diplome!
22.818MEERS VINCENT37BEL3:10:414:32 13.28132GENTBRUGGETéléchargez votre diplome!
23.848WAGEMANS STEFAN39BEL3:11:174:32 13.24138LICHTAARTTéléchargez votre diplome!
24.2381DE VREESE WIM35BEL3:11:254:33 13.23140GENTTéléchargez votre diplome!
25.1175RIVET JEAN FRANCOIS36FRA3:11:514:33 13.20143WIMEREUXTéléchargez votre diplome!
26.2083MATTHYS Wim39BEL3:11:544:33 13.19145Téléchargez votre diplome!
27.509WIJNEN YVES35BEL3:14:064:37 13.04166MAASMECHELENTéléchargez votre diplome!
28.215HOOGEWIJS TOM39BEL3:14:294:37 13.02171LONDERZEELTéléchargez votre diplome!
29.1105DEHAIRS DAVID37BEL3:14:394:37 13.01172VILVOORDETéléchargez votre diplome!
30.582VANDENBROUCKE CHRIST39BEL3:15:074:38 12.98182MOORSELETéléchargez votre diplome!
31.1259KUYSTERMANS TOM36BEL3:15:284:38 12.95186BLANKENBERGETéléchargez votre diplome!
32.832VERVUEREN STEVE36BEL3:15:364:39 12.94189VILVOORDETéléchargez votre diplome!
33.496STOFMEEL MICHA39BEL3:16:584:41 12.85199HERENTHOUTTéléchargez votre diplome!
34.793SENECHAL SEBASTIEN38FRA3:17:074:41 12.84201OUTREAUTéléchargez votre diplome!
35.907KELCHTERMANS JIMMY37BEL3:18:154:42 12.77211HOUTHALENTéléchargez votre diplome!
36.1060SMANS BEN38BEL3:18:194:42 12.77212HERENTALSTéléchargez votre diplome!
37.919REYNTJENS GUY39BEL3:19:454:45 12.68218OUDENAARDETéléchargez votre diplome!
38.2288STOMMELS JERRY37BEL3:19:554:45 12.66220BURCHTTéléchargez votre diplome!
39.2311DE WOLF DAVID36BEL3:20:464:46 12.61228NIEUWKERKEN-WAASTéléchargez votre diplome!
40.924GEERTS PETER39BEL3:21:514:48 12.54239ZANDVLIETTéléchargez votre diplome!
41.603VAN CAMP NICO36BEL3:22:234:48 12.51243BOECHOUTTéléchargez votre diplome!
42.1235VAN ZAELEN MARCO37BEL3:22:284:48 12.50246ANTWERPEN 1Téléchargez votre diplome!
43.533VAN LOON ANDY36BEL3:22:474:49 12.48256BOOMTéléchargez votre diplome!
44.1025CATTEAU STAN38BEL3:23:584:51 12.41271KESSEL-LOTéléchargez votre diplome!
45.1099GOVAERT DANIEL35BEL3:24:524:52 12.36281SINT-NIKLAASTéléchargez votre diplome!
46.777FOGUENNE OLIVIER39BEL3:25:144:52 12.34283STAVELOTTéléchargez votre diplome!
47.368VAN POUCKE NIEK36BEL3:25:234:53 12.33287SINT-KRUIS (BRUGGE)Téléchargez votre diplome!
48.1360STROEYKENS KAREL36BEL3:25:384:53 12.31290ERPS-KWERPSTéléchargez votre diplome!
49.938PUNT KRIS39BEL3:25:484:53 12.30294WAARLOOSTéléchargez votre diplome!
50.1529VAN BUYNDER KRIS35BEL3:25:584:53 12.29297WAASMUNSTERTéléchargez votre diplome!
51.361PADRON LUIS35BEL3:26:144:54 12.28299BEERSELTéléchargez votre diplome!
52.2422SAEYS Kris39BEL3:26:234:54 12.27302DENDERMONDETéléchargez votre diplome!
53.823KETELBUETERS HANS37BEL3:27:124:55 12.22315BORGERHOUTTéléchargez votre diplome!
54.2377KEYGNAERT WIM39BEL3:28:134:57 12.16327GENTTéléchargez votre diplome!
55.1234MERCKX ROBBY38BEL3:28:134:57 12.16328GEELTéléchargez votre diplome!
56.1549FLORIS Francesco37BEL3:28:184:57 12.15331Téléchargez votre diplome!
57.1098ALENS JAN39BEL3:28:184:57 12.15332ZOERSELTéléchargez votre diplome!
58.525ANTHONE PATRICK39BEL3:28:544:58 12.12340SINT-KRUIS (BRUGGE)Téléchargez votre diplome!
59.1109GUILBERT THIERRY39FRA3:29:074:58 12.11344NABRINGHENTéléchargez votre diplome!
60.584DEPROOST HENK38BEL3:30:084:59 12.05371KORTEMARKTéléchargez votre diplome!
61.1283MARIEN SIGE39BEL3:30:124:59 12.04373HEMISKEMTéléchargez votre diplome!
62.270LEDAINE TOM38BEL3:31:275:01 11.97392STERREBEEKTéléchargez votre diplome!
63.1115BOOSTEN KOEN36BEL3:32:095:02 11.93397BREETéléchargez votre diplome!
64.1191DARQUES GONTRAN39FRA3:32:175:02 11.93401NEUVILLE EN FERRAINTéléchargez votre diplome!
65.2375MAES BART38BEL3:32:325:03 11.91403LIERTéléchargez votre diplome!
66.1093VERGAUWEN KWINTEN36BEL3:32:565:03 11.89405BUGGENHOUTTéléchargez votre diplome!
67.583VERSCHAEVE BART35BEL3:33:505:05 11.84412PITTEMTéléchargez votre diplome!
68.575VERDOOLAEGHE PATRICK35BEL3:34:035:05 11.83420MALDEGEMTéléchargez votre diplome!
69.57NOBEN PHILIP35BEL3:34:555:06 11.78432MORTSELTéléchargez votre diplome!
70.230VAN PEER MARC38BEL3:34:595:06 11.78433VOSSELAARTéléchargez votre diplome!
71.1407PEETERS RAF39BEL3:35:345:07 11.74442MALLETéléchargez votre diplome!
72.1160MACHIELSEN ROBBIE37NLD3:35:445:07 11.74445BREDATéléchargez votre diplome!
73.2337D'ATTARDI OLIVIER39BEL3:36:255:08 11.70450HERMEETéléchargez votre diplome!
74.1106VERBIEST DRIES35BEL3:36:335:08 11.69453KESSEL-LOTéléchargez votre diplome!
75.854AMBROOS MARIO38BEL3:36:595:09 11.67458ANTWERPEN 2Téléchargez votre diplome!
76.1518WERNIERS FILIP37BEL3:37:005:09 11.67460MORTSELTéléchargez votre diplome!
77.137VAN OOSTERWIJCK SVEN39BEL3:37:045:09 11.66461TIELT-WINGETéléchargez votre diplome!
78.891VERLINDEN WALTER38BEL3:37:215:10 11.65468HULSHOUTTéléchargez votre diplome!
79.1291VAN LAERHOVEN RUDY37BEL3:38:045:11 11.61480STABROEKTéléchargez votre diplome!
80.2057DE MEULDER Kim37BEL3:38:095:11 11.61482Téléchargez votre diplome!
81.1522RUCKEBUSCH BART38BEL3:38:295:11 11.59488VLISSEGEMTéléchargez votre diplome!
82.439CATTEAU BEN35BEL3:38:445:12 11.58492GENTBRUGGETéléchargez votre diplome!
83.1017VAN DEN BOSSCHE DAVID35BEL3:38:465:12 11.57493OPWIJKTéléchargez votre diplome!
84.251VAN DEN HEUVEL TOM36BEL3:39:025:12 11.56501MUNCHENTéléchargez votre diplome!
85.2099IMBERT Sven36BEL3:39:565:13 11.51514Téléchargez votre diplome!
86.2303STEVENS IVO37BEL3:40:215:14 11.49522BORNEMTéléchargez votre diplome!
87.904BOONEN CHRIS39BEL3:41:075:15 11.45528MEERTéléchargez votre diplome!
88.683MALCORPS PHILIP39BEL3:41:375:16 11.42537HERENTALSTéléchargez votre diplome!
89.1151VAN GOOL DIETER39BEL3:43:175:18 11.34571MERKSEM (ANTWERPEN)Téléchargez votre diplome!
90.1211COENDERS HAROLD39NLD3:43:185:18 11.34572ROTTERDAMTéléchargez votre diplome!
91.119VERDURME FILIP37BEL3:43:195:18 11.34573HOVETéléchargez votre diplome!
92.1243GOOS PETER37BEL3:43:335:18 11.33578HEVERLEETéléchargez votre diplome!
93.1233VERCAUTEREN JORDY35BEL3:44:075:19 11.30587ANTWERPENTéléchargez votre diplome!
94.1467MAERTENS DAVE36BEL3:44:225:20 11.28592VOSSELARETéléchargez votre diplome!
95.237PAUL OLIVER37GER3:45:165:21 11.24612DUSSELDORFTéléchargez votre diplome!
96.2017DUBBELMAN Daf35BEL3:46:175:22 11.19628Téléchargez votre diplome!
97.660VAN DER LINDE ERWIN36NLD3:46:265:22 11.18630VLISSINGENTéléchargez votre diplome!
98.1435COESSENS PIET35BEL3:46:545:23 11.16638HEUSDEN (O.-VL.)Téléchargez votre diplome!
99.1023WALRAVENS MARIO35BEL3:47:105:24 11.15644VILVOORDETéléchargez votre diplome!
100.1455JAUMOTTE LAURENT38BEL3:48:075:25 11.10664GODINNETéléchargez votre diplome!
101.2316STOOP RONNY39BEL3:49:495:27 11.02680DE KLINGETéléchargez votre diplome!
102.652VOETEN GERT38BEL3:49:515:27 11.02681HOOGSTRATENTéléchargez votre diplome!
103.489PIRES JOSE35FRA3:50:335:28 10.98693MONTESCOURT LIZEROLLESTéléchargez votre diplome!
104.247PREVOT LAURENT37BEL3:51:265:30 10.94707PHILIPPEVILLETéléchargez votre diplome!
105.545VANCOPPENOLLE THIERRY39BEL3:51:285:30 10.94708RENAIXTéléchargez votre diplome!
106.1561ROOSE Tony36BEL3:51:475:30 10.92712Téléchargez votre diplome!
107.1457VERHOEVEN JURGEN39BEL3:52:145:31 10.90722BOUWELTéléchargez votre diplome!
108.706FAVRESSE GAEL36FRA3:52:185:31 10.90724RUCHTéléchargez votre diplome!
109.1451GEUDENS RUBEN35BEL3:52:255:31 10.89727ANTWERPENTéléchargez votre diplome!
110.838SEGERS GUNTHER37BEL3:52:385:31 10.88732MOORSELTéléchargez votre diplome!
111.934WYNEN MARC38BEL3:53:175:32 10.85740WIJNEGEMTéléchargez votre diplome!
112.443FRANS JURGEN35BEL3:53:285:32 10.84743RUMSTTéléchargez votre diplome!
113.569WOUTERS TIM37BEL3:54:055:33 10.82756BERCHEMTéléchargez votre diplome!
114.85CHERRY CHRISTOPHE39BEL3:54:095:33 10.81757FERNELMONTTéléchargez votre diplome!
115.394ROELEN CORNE39NLD3:54:315:34 10.80760TETERINGENTéléchargez votre diplome!
116.888VERMEIREN PETER39BEL3:54:535:34 10.78769SINT-LENAERTSTéléchargez votre diplome!
117.1433WOUTERS KRIS38BEL3:55:035:35 10.77771NETHENTéléchargez votre diplome!
118.949STEEN BART36BEL3:55:215:35 10.76776GENTTéléchargez votre diplome!
119.135DAMS KRIS38BEL3:55:225:35 10.76778HERENTALSTéléchargez votre diplome!
120.487LEMAIRE KRIS36BEL3:56:035:36 10.73793MUIZEN (MECHELEN)Téléchargez votre diplome!
121.2287BAETENS PIETER38BEL3:56:185:36 10.71800HALLETéléchargez votre diplome!
122.2024CLAUS Filip39BEL3:56:235:37 10.71803Téléchargez votre diplome!
123.1429DE GRAUWE JOHAN35BEL3:57:225:38 10.67830WETTERENTéléchargez votre diplome!
124.2388BROECKHOVE Hobert37BEL3:57:475:39 10.65839SINT-AMANDSBERGTéléchargez votre diplome!
125.212VAN GUCHT FILIP37BEL3:58:005:39 10.64849HAMMETéléchargez votre diplome!
126.1077CLOCKAERTS BEN35BEL3:58:005:39 10.64851HOVETéléchargez votre diplome!
127.474DETEMMERMAN HUGUES35BEL3:58:115:39 10.63856LADEUZETéléchargez votre diplome!
128.314VISY GEZA35BEL3:58:205:39 10.62861BRUSSELSTéléchargez votre diplome!
129.2286DE SCHEPPER BRUNO39BEL3:58:255:40 10.62866BEVEREN-WAASTéléchargez votre diplome!
130.2039SERESIA Andy38BEL3:58:375:40 10.61869Téléchargez votre diplome!
131.146VERHELST OLIVIER36BEL3:59:165:41 10.58881NIELTéléchargez votre diplome!
132.386SEIFERT CHRISTIAN35SWI3:59:505:42 10.56887NYONTéléchargez votre diplome!
133.857VERELST KRIS39BEL3:59:595:42 10.55891HEVERLEETéléchargez votre diplome!
134.1002DE MAEYER PEGGY38BEL4:01:195:44 10.49905BUGGENHOUTTéléchargez votre diplome!
135.161VLOEMANS BART35BEL4:01:305:44 10.48907TURNHOUTTéléchargez votre diplome!
136.873PEINADO JAVIER39BEL4:04:495:49 10.34940BRUXELLESTéléchargez votre diplome!
137.1032MAESSCHALCK ANTHONY38BEL4:05:145:49 10.32949ERPE-MERETéléchargez votre diplome!
138.1813DELFORGE Angelo38BEL4:05:175:49 10.32950Téléchargez votre diplome!
139.1420VANBRABANT ANDY39BEL4:06:195:51 10.28964RANSBERGTéléchargez votre diplome!
140.562GLORIEUX FREDERIC38BEL4:06:305:51 10.27966ANDERLECHTTéléchargez votre diplome!
141.2412DEVRIENDT WIM38BEL4:08:085:53 10.20980DENDERMONDETéléchargez votre diplome!
142.447DE GROOF WIM38BEL4:08:245:54 10.19984AARTSELARTéléchargez votre diplome!
143.918GODDEERIS IDESBALD38BEL4:08:455:54 10.18989LEUVENTéléchargez votre diplome!
144.1811JACOBS Robby37BEL4:08:495:54 10.18991Téléchargez votre diplome!
145.1333VAN DER TAELEN TOM39BEL4:09:055:55 10.16997HOBOKEN (ANTWERPEN)Téléchargez votre diplome!
146.851VAN ROOY JORIS38BEL4:10:275:57 10.111012BERCHEM (ANTWERPEN)Téléchargez votre diplome!
147.1281VANNIEUWENHUYSE LUC36BEL4:11:045:57 10.081021ZWIJNAARDETéléchargez votre diplome!
148.259PASSEMIERS BART38BEL4:11:105:58 10.081025HAMMETéléchargez votre diplome!
149.731EVISON MIKE39BEL4:11:175:58 10.081031BRASSCHAATTéléchargez votre diplome!
150.465MARIEVOET CHRISTOPHE37BEL4:11:225:58 10.071032TISSELTTéléchargez votre diplome!
151.701PEELMAN LIEVEN38BEL4:11:395:58 10.061038BORNEMTéléchargez votre diplome!
152.860WUYTS KOEN39BEL4:12:366:00 10.021051WOMMELGEMTéléchargez votre diplome!
153.766PODEVIJN FRANKY36BEL4:12:486:00 10.011054AALSTTéléchargez votre diplome!
154.769VOES CHRISTOPHE38BEL4:13:146:01 10.001057HOESELTTéléchargez votre diplome!
155.1139VERMEYLEN GERRY39BEL4:13:386:01 9.981065SCHERPENHEUVELTéléchargez votre diplome!
156.64STAES CHRIS37BEL4:14:266:02 9.951079ANTWERPENTéléchargez votre diplome!
157.2254MICHIELS KRISTOF37BEL4:14:276:02 9.951080SCHOTENTéléchargez votre diplome!
158.194SCHENKELS STEVEN36BEL4:15:036:03 9.931087S GRAVENWEZELTéléchargez votre diplome!
159.120HUYGHE FILIP39BEL4:15:366:04 9.911098BRUSSEL 21Téléchargez votre diplome!
160.2259LUYCKX PASCAL37BEL4:17:136:06 9.841121ANTWERPEN 5Téléchargez votre diplome!
161.175OTS PASCAL38BEL4:17:246:06 9.841123AARTSELAARTéléchargez votre diplome!
162.1258CEUSTERS GERRY38BEL4:17:406:07 9.831127HERSELTTéléchargez votre diplome!
163.252PUTTEMANS ERIK39BEL4:17:446:07 9.821130BORGERHOUTTéléchargez votre diplome!
164.984TIMMERMAN BART37BEL4:18:376:08 9.791142LOVENDEGEMTéléchargez votre diplome!
165.473ADAMS KRIS38BEL4:18:406:08 9.791144BERCHEM (ANTWERPEN)Téléchargez votre diplome!
166.2066ROGER Wim39BEL4:18:426:08 9.791145Téléchargez votre diplome!
167.1172DE VOS TOM38BEL4:19:006:09 9.781149KAPELLEN (ANTW.)Téléchargez votre diplome!
168.1452ORLOWSKI MAREK37BEL4:19:016:09 9.771150EVERETéléchargez votre diplome!
169.1326DE WIT WIM38BEL4:21:356:12 9.681172RUISBROEK-PUURSTéléchargez votre diplome!
170.2025KEERSMAECKERS Geert36BEL4:21:476:13 9.671174Téléchargez votre diplome!
171.1260GROEBER JEFF38LUX4:22:156:13 9.651181RUMELANGETéléchargez votre diplome!
172.93LONCKE CHRIS37BEL4:22:556:14 9.631187ZEMSTTéléchargez votre diplome!
173.1308BIJLSMA PIETER39BEL4:23:076:15 9.621190ANTWERPENTéléchargez votre diplome!
174.1466VERSCHUEREN NICO37BEL4:23:456:16 9.601196ZANDVLIETTéléchargez votre diplome!
175.1227OPPENBROUWER KURT35BEL4:24:426:17 9.561199ANTWERPEN 6Téléchargez votre diplome!
176.1157HEYMANS STEPHANE39BEL4:25:036:17 9.551201PONT-A-CELLESTéléchargez votre diplome!
177.965DAEMS ERIK38BEL4:25:346:18 9.531203EKEREN (ANTWERPEN)Téléchargez votre diplome!
178.1337SCHEPKENS YVES37BEL4:27:076:20 9.481209ASTéléchargez votre diplome!
179.1338DOGAN RIFAT37BEL4:27:146:20 9.471210DEURNE (ANTWERPEN)Téléchargez votre diplome!
180.1222MARCHAL RAPHAEL35BEL4:30:576:26 9.341238LOKERENTéléchargez votre diplome!
181.1474COMMISSARIS STEVE36BEL4:32:416:28 9.281252STABROEKTéléchargez votre diplome!
182.801VERWAEST WIM36BEL4:33:096:29 9.271259LINTTéléchargez votre diplome!
183.138BOOGAERTS GUNTHER35BEL4:33:456:30 9.251265MELSBROEKTéléchargez votre diplome!
184.1061NEEFS KRIS39BEL4:34:556:31 9.211281ANTWERPEN 5Téléchargez votre diplome!
185.453GRENIER STEVE38BEL4:35:076:32 9.201284GROOT-BIJGAARDENTéléchargez votre diplome!
186.765VAN LANGENDONCK DANNY37BEL4:35:396:32 9.181289SCHOTENTéléchargez votre diplome!
187.1201CASTELEYN PATRICK36BEL4:40:226:39 9.031305TEMSETéléchargez votre diplome!
188.354WIECK ROBERT36USA4:40:226:39 9.031306ELKHART LAKE, WITéléchargez votre diplome!
189.663JACOBS DAVE35BEL4:41:286:41 8.991317BILZENTéléchargez votre diplome!
190.1254SMESSAERT JURGEN39BEL4:44:386:45 8.891332OOSTKAMPTéléchargez votre diplome!
191.541HIDALGO MARCELO38BEL4:45:016:46 8.881337ANTWERPENTéléchargez votre diplome!
192.1564MUYS Koen39BEL4:52:106:56 8.671364Téléchargez votre diplome!
193.742PAESSENS MICHAEL36NLD4:53:096:57 8.641367KERKRADETéléchargez votre diplome!
194.732KAGELE JAMES39NLD4:54:346:59 8.591374HOENSBROEKTéléchargez votre diplome!
195.1275BAUWENS BJORN39BEL4:54:557:00 8.581377MALDEGEMTéléchargez votre diplome!
196.962SMEETS JOHN38NLD4:56:047:01 8.551381ROERMONDTéléchargez votre diplome!
197.705PEETERS JOHAN39BEL4:58:527:05 8.471393LIERTéléchargez votre diplome!
DNF: abandon; DSQ: disqualifié; Vitesse en km/h
ChronoRace - Electronic Timing - www.chronorace.be